Hibbing, MN

3:55 AM CDT on September 18, 2014 (GMT -0500)
Chisholm-hibbing | Change Station
CLOSE
Current Station
Airport
Location: Hibbing,
Elevation: 1352 ft
Nearby Weather Stations
Active Advisory: Frost Advisory

Elev 1352 ft 47.39 °N, 92.84 °W | Updated 1 hour ago

Overcast
Overcast
44 °F
Feels Like 40 °F
N
8
Wind Variable Wind from SE

Today
High -- | Low -- °F
--% Chance of Precip.
Yesterday
High -- | Low -- °F
Precip. -- in
6:52 AM 7:17 PM
Waning Crescent, 29% visible
Pressure 30.15 in
Visibility 10.0 miles
Clouds Overcast 900 ft
Windchill 40 °F
Dew Point 39 °F
Humidity 82%
Rainfall 0.00 in
Snow Depth Not available.
UV 0 out of 12
Pollen 1.90 out of 12
Air Quality Not available.
Flu Activity Not available.
METAR KHIB 180753Z AUTO 13007KT 10SM OVC009 07/04 A3013 RMK AO2 SLP208 T00670039

More Conditions Fewer Conditions

Pressure 30.15 in
Visibility 10.0 miles
Clouds Overcast 900 ft
Windchill 40 °F
Dew Point 39 °F
Humidity 82%
Rainfall 0.00 in
Snow Depth Not available.
UV 0 out of 12
Pollen 1.90 out of 12
Air Quality Not available.
Flu Activity Not available.
METAR KHIB 180753Z AUTO 13007KT 10SM OVC009 07/04 A3013 RMK AO2 SLP208 T00670039

More Conditions Fewer Conditions

10-Day Weather Forecast

Almanac

Astronomy

Sep. 18, 2014 Rise Set
Actual Time 6:52 AM CDT 7:17 PM CDT
Civil Twilight 6:22 AM CDT 7:47 PM CDT
Nautical Twilight 5:45 AM CDT 8:24 PM CDT
Astronomical Twilight 5:07 AM CDT 9:01 PM CDT
Moon 1:29 AM CDT 4:23 PM CDT
Length of Visible Light 13h 25m
Length of Day
12h 24m
Tomorrow will be 3m 23s shorter.
Waning Crescent, 29% of the Moon is Illuminated
Today
Waning Crescent
Sep 24
New
Oct 1
First Quarter
Oct 8
Full
Oct 15
Last Quarter

Today's Extremes

State Highs State Lows

Community

WunderPhotos

Upload Photos

1,754,310 photos uploaded!

Nearby

Snow Depth

Station Depth Elevation
No new snow has been reported.

Earthquake Activity

City Distance Mag. Time & Date
No recent earthquake activity has been reported nearby.
Minimum magnitude displayed is 2.5.

Coastal Water Temperatures

Place Temperature
No Stations Reporting

Nearby Weather Stations